{"data":{"norad_id":52362,"intl_designator":"2022-045AH","name":"STARLINK-3848","alt_names":[],"object_type":"PAYLOAD","status":"ACTIVE","operator":null,"country":"US","launch_date":"2022-04-29","launch_site_code":"AFETR","launch_vehicle":null,"mission":null,"orbit_class":"UNKNOWN","rcs_meters":null,"size_class":null,"mass_kg":null,"dimensions":null,"purposes":["comms"],"wikipedia_slug":null,"has_3d_model":false,"image_url":null,"decayed_at":null,"tle_current":{"epoch":"2026-09-20T00:46:22.353024Z","epoch_age_seconds":100114,"freshness":"FRESH","line1":"1 52362U 22045AH  26263.03220316  .00000336  00000+0  22579-4 0  9997","line2":"2 52362  53.1608  21.6310 0001115  83.9661 276.1467 15.31704205245469","mean_motion":15.31704205,"eccentricity":0.0001115,"inclination_deg":53.1608,"raan_deg":21.631,"arg_perigee_deg":83.9661,"mean_anomaly_deg":276.1467,"bstar":2.2579e-5,"rev_number":24546,"period_min":94.01292986592,"perigee_km":469.9638119808,"apogee_km":471.49110875547,"semimajor_km":6848.8644603681,"source":"CELESTRAK","updated_at":"2026-09-20T09:00:40.026699Z"}}}